Retour au catalogue

STARLINK-38038

ActifCommunicationsSSO
NORAD 100116·PAYLOAD·🇺🇸 United States

Lancé Jul 21, 2026 depuis Vandenberg Space Force Base

Loading…

Prochains Passages (prochaines 24 heures)

TLE

FraisSource: Space-Track

Époque: Sep 14, 2026, 18:37 UTC

1 A0116U 26166R   26257.77583405  .00001463  00000-0  10678-4 0  9990
2 A0116  97.2834 275.8628 0001422 100.6834 259.4592 15.75186513  8705

Suivez STARLINK-38038 en temps réel avec AllMySat

Download on the App Store